Wind_Speed
45 46 47 48 50 51 49 44 42 41 40 40 40 40 40 40 41 43 42 40 38 38 38 37 35 33 31 28 26 24 22 21 20 19 17 16 15 14 13 12 10 9 8 7 6 5 5 4 4
48 48 50 52 53 54 50 46 46 44 44 43 43 43 43 43 43 44 43 41 39 39 40 39 38 36 33 31 28 26 24 22 21 20 19 18 17 15 14 13 12 10 9 8 8 7 6 6 5
50 51 53 55 56 54 51 49 49 48 47 47 46 45 45 45 45 44 43 42 40 40 42 42 40 38 36 33 31 29 26 24 23 22 21 20 18 17 16 15 14 12 11 10 9 8 7 7 7
52 53 55 57 57 53 52 52 51 51 50 49 49 48 47 47 46 46 45 44 42 42 43 43 43 41 39 36 33 31 29 27 25 24 22 21 20 19 17 16 15 14 12 11 11 10 9 9 8
53 54 56 57 56 54 54 54 53 53 52 51 51 51 50 49 48 47 47 46 44 43 44 45 45 43 41 39 36 33 31 29 27 25 24 23 22 21 19 18 17 16 14 13 12 12 11 10 10
53 55 57 57 56 55 56 55 55 55 55 54 53 53 51 51 50 49 48 47 46 45 45 47 47 45 43 41 39 36 33 31 30 28 26 25 24 22 21 20 19 17 16 15 14 13 13 12 11
53 54 55 55 55 55 56 55 55 56 56 56 55 55 52 52 51 50 49 49 49 47 46 48 48 47 45 43 41 38 36 33 32 30 28 27 26 24 23 21 20 19 18 17 16 15 14 14 13
53 54 54 54 55 55 54 55 54 55 55 54 55 55 54 53 52 51 50 50 51 50 49 49 50 48 47 45 43 41 38 36 34 32 31 29 28 26 25 23 22 21 20 19 18 17 16 16 15
52 53 52 51 51 51 51 53 54 54 55 53 54 56 54 54 53 51 50 50 50 51 51 52 51 50 48 47 45 43 41 39 37 34 33 31 30 28 26 25 24 23 22 21 20 19 18 18 17
49 49 47 47 47 48 50 51 51 52 54 54 53 54 53 52 53 52 51 50 51 52 51 52 53 52 50 48 47 45 43 41 39 37 35 33 32 29 28 27 26 25 24 23 22 21 20 19 19
42 42 41 42 44 46 47 48 48 51 53 53 52 52 52 51 52 51 51 51 52 53 53 53 53 53 51 49 49 47 46 43 41 39 37 35 33 31 30 29 28 27 26 25 24 23 22 21 21
36 36 38 39 41 42 44 47 47 49 49 51 51 52 52 50 51 51 52 51 53 54 54 54 53 53 52 50 50 49 48 45 43 41 39 37 35 33 32 31 30 29 28 27 26 25 24 23 23
31 33 34 35 37 39 41 45 47 47 47 50 51 51 52 51 51 51 52 54 55 56 56 55 54 53 53 52 51 50 50 47 45 43 41 39 37 36 34 33 32 31 30 29 28 27 26 25 24
26 27 29 31 33 35 38 40 43 43 43 46 49 49 50 51 50 51 51 53 55 57 57 56 56 55 54 53 52 51 50 50 48 45 43 41 39 38 36 35 34 33 32 31 30 28 27 26 26
22 24 25 27 28 29 34 35 36 37 40 42 45 46 48 49 49 50 51 53 53 56 57 57 56 55 54 54 54 52 50 50 48 47 45 43 41 40 38 37 36 34 33 33 32 30 29 29 28
19 20 21 21 22 24 28 28 28 32 34 36 40 43 45 48 48 48 50 53 53 54 56 56 54 54 54 54 53 52 50 49 49 49 47 45 43 41 40 39 38 36 35 35 34 33 32 31 30
14 15 15 15 17 19 22 21 22 26 29 32 36 39 41 43 46 47 49 50 50 51 54 56 55 52 52 51 50 50 49 49 49 49 48 46 45 43 42 41 39 37 35 34 34 33 32 32 31
10 11 11 12 14 15 16 16 17 22 25 29 32 35 38 39 41 43 45 46 47 47 49 53 54 51 50 51 50 49 48 47 48 48 48 48 46 44 42 41 39 37 36 35 35 34 34 34 33
7 8 8 9 11 11 12 13 14 18 21 25 29 32 34 36 37 38 40 42 44 46 47 49 51 49 48 49 47 47 46 46 47 47 47 46 46 45 43 42 41 40 39 38 37 37 36 36 36
5 5 6 5 7 8 9 10 11 12 15 19 24 27 30 33 34 35 36 39 42 42 43 44 45 46 46 46 45 46 45 44 45 47 46 46 46 45 45 44 44 43 41 41 40 39 39 38 38
2 2 2 2 2 3 4 6 9 9 11 16 20 23 26 28 30 30 31 35 36 39 38 38 39 39 40 42 42 44 46 44 43 44 44 45 46 45 44 43 43 44 43 41 41 41 41 41 41
2 3 2 3 3 3 3 3 4 6 9 12 14 18 20 23 25 27 29 30 31 35 34 34 33 33 35 36 37 40 42 42 42 43 44 45 45 45 44 43 43 44 44 42 42 42 43 43 43
4 5 5 4 4 3 4 3 6 6 7 9 10 12 15 18 21 25 25 25 27 30 30 32 31 30 31 34 34 36 38 39 39 41 43 45 45 45 45 46 46 46 45 44 43 44 45 44 44
6 6 6 5 4 4 4 4 5 6 7 7 8 9 10 13 16 19 20 20 23 26 26 26 29 27 27 31 33 35 36 36 38 40 41 42 43 45 45 44 45 46 46 46 46 45 45 44 43
7 7 7 6 5 5 5 4 5 7 7 7 7 7 8 10 12 13 15 17 21 24 24 25 26 26 27 31 32 34 35 35 37 37 38 40 41 43 45 45 45 46 47 47 47 46 46 45 44
7 7 7 7 6 7 6 5 5 7 9 9 8 6 7 10 11 10 12 16 19 21 23 23 24 25 26 28 31 34 34 34 36 37 37 38 40 42 44 45 45 45 45 45 45 45 45 46 45
8 9 9 9 8 8 8 8 8 8 9 9 7 6 6 6 7 7 9 13 16 18 19 20 21 22 24 25 28 32 33 34 35 36 36 38 41 41 42 43 45 44 43 44 44 45 46 46 45
9 9 9 9 9 9 9 9 8 8 8 7 8 7 7 6 5 5 6 9 12 13 15 17 18 18 19 22 25 28 30 34 36 37 39 38 39 41 42 43 43 43 44 44 45 46 46 47 46
10 9 10 9 9 10 10 10 9 9 8 8 8 8 6 5 4 3 5 6 8 11 13 14 17 19 20 22 25 26 28 30 34 36 37 37 38 40 41 42 42 43 44 46 46 45 46 46 46
9 9 10 10 10 11 11 11 10 9 9 8 7 6 6 5 5 5 5 7 8 11 13 14 15 17 19 22 24 26 26 28 30 32 34 36 37 39 40 42 43 43 44 45 46 47 47 47 47
Wind_Direction
258 258 258 258 257 257 259 261 262 261 259 258 258 257 255 252 250 248 247 245 241 235 232 232 232 233 235 236 236 237 238 239 239 239 239 239 240 242 243 243 244 244 246 247 246 246 243 240 241
259 259 258 257 257 258 260 263 262 261 259 257 257 256 255 252 251 251 249 247 243 237 233 232 232 232 233 234 235 235 237 238 238 239 239 238 239 240 242 243 243 242 244 244 244 246 246 245 245
259 258 258 257 257 259 263 263 262 260 258 257 256 255 254 252 251 251 249 247 245 239 234 232 232 232 232 233 234 235 235 237 237 238 239 239 239 240 241 242 243 243 244 243 245 247 248 249 248
258 258 257 257 258 260 261 261 260 258 257 255 255 254 253 253 251 250 248 246 244 240 235 232 231 231 232 232 232 234 234 236 237 238 239 239 239 239 240 242 243 244 244 245 246 248 249 250 250
258 259 258 258 259 260 259 258 257 256 255 254 255 254 253 251 250 249 246 245 243 240 236 232 231 231 231 231 231 232 234 235 236 237 238 238 238 238 239 241 243 244 245 245 247 249 249 250 250
259 260 259 259 259 259 258 256 254 254 254 252 252 253 253 251 248 246 245 242 240 238 236 232 231 230 230 231 231 232 233 234 236 237 237 237 238 238 239 242 243 244 245 246 248 249 250 250 251
261 261 260 259 258 257 256 254 251 252 252 251 250 251 251 250 247 245 244 240 238 237 235 231 230 230 230 230 230 231 232 233 235 236 237 237 237 238 240 242 243 245 246 247 249 250 250 251 252
261 261 260 259 257 256 255 252 250 249 249 250 249 248 249 248 246 244 242 239 236 235 233 231 230 230 230 230 230 230 231 232 234 235 237 238 238 239 241 242 244 245 246 248 249 251 252 253 254
262 261 260 259 257 255 253 251 249 248 247 247 247 247 247 246 244 242 240 237 234 232 231 230 229 229 229 229 229 230 231 232 233 235 237 238 239 240 242 243 244 246 248 249 250 252 253 254 256
264 262 260 257 254 251 249 249 249 248 247 246 245 244 243 244 242 239 236 235 232 230 229 228 227 227 228 229 230 230 230 232 233 235 236 238 239 240 242 243 245 246 248 249 251 252 254 255 257
263 260 257 253 252 250 249 249 249 248 247 245 243 242 242 242 240 238 234 232 230 228 227 227 226 226 227 228 229 229 230 232 233 234 236 238 240 241 242 244 245 247 249 251 252 253 254 256 258
263 259 255 254 252 251 251 249 249 248 246 244 242 241 240 240 239 235 232 229 227 226 225 225 224 224 225 226 228 229 230 231 233 234 236 238 241 242 243 244 246 247 248 251 253 254 255 257 258
266 261 256 256 256 253 252 251 250 249 247 244 240 238 239 239 237 232 230 227 226 223 223 223 223 224 224 225 226 228 229 231 233 234 235 238 240 242 243 245 247 247 248 250 252 254 256 258 259
269 263 260 259 258 257 255 253 253 251 248 243 240 236 235 234 232 230 229 225 225 222 220 221 222 223 224 225 225 226 227 230 232 233 235 237 240 241 242 246 248 248 249 251 252 253 256 258 259
269 265 263 261 258 258 259 257 255 251 246 241 237 233 231 230 230 228 226 224 224 222 220 220 222 222 223 224 225 225 226 229 231 233 235 237 239 241 243 245 247 248 249 250 251 253 256 258 261
271 271 266 261 260 260 261 260 252 246 241 238 234 230 228 227 226 224 224 223 221 220 220 220 221 223 222 225 227 226 227 229 230 232 234 237 238 240 243 245 247 249 249 251 252 253 255 259 262
271 268 264 261 260 263 264 260 247 240 236 233 229 227 225 224 220 220 221 220 220 219 220 220 221 221 220 222 224 226 226 229 230 232 233 235 237 240 242 244 246 248 250 251 253 254 256 259 261
268 265 258 258 260 263 258 252 244 238 235 230 227 225 224 222 216 217 217 217 217 217 219 220 222 222 221 223 225 225 226 228 229 231 232 234 236 238 240 242 245 247 249 251 253 254 255 258 261
263 259 256 259 260 260 255 253 243 238 236 231 225 224 222 219 215 215 215 217 217 218 219 219 220 222 222 222 223 223 226 228 229 230 231 233 235 237 240 244 246 248 250 252 254 255 256 259 261
254 257 251 247 252 259 254 245 235 232 230 225 223 218 217 213 213 211 213 214 214 215 216 218 220 221 222 222 223 224 226 229 231 232 232 234 237 239 241 244 246 248 250 253 254 255 258 260 261
239 241 210 188 202 242 235 227 227 222 222 216 215 214 212 212 208 207 210 211 213 214 213 216 216 222 224 225 225 225 225 227 229 230 233 236 238 240 241 244 248 249 251 253 255 256 258 259 260
155 151 127 125 145 152 149 143 188 205 199 201 209 212 212 209 206 203 205 209 211 212 212 214 215 220 222 222 225 226 226 228 233 234 236 237 239 241 242 245 248 250 252 253 255 258 258 260 262
135 138 126 125 137 147 150 145 133 148 166 182 192 196 202 205 208 208 209 212 212 210 210 213 214 218 222 222 224 228 231 233 235 236 238 239 241 243 245 247 248 250 251 253 255 257 259 261 263
124 128 123 117 114 125 134 146 134 141 153 162 177 187 193 199 202 207 208 213 215 211 213 215 218 223 225 225 227 230 232 234 236 239 240 242 245 246 247 248 250 251 252 253 256 259 260 262 263
127 132 124 116 111 113 123 128 132 142 148 156 160 166 177 189 199 203 209 215 213 212 214 216 220 223 226 227 230 231 232 235 239 241 242 244 247 249 250 251 252 253 255 256 258 259 262 264 265
130 131 124 118 118 120 119 130 129 133 138 145 144 154 182 189 199 208 213 212 212 214 217 222 224 227 229 231 232 234 238 240 244 244 245 247 249 252 254 255 255 257 258 258 260 260 261 264 266
124 123 122 120 114 118 123 131 132 139 139 134 134 138 160 183 202 204 202 206 210 214 221 227 231 233 235 239 238 240 242 244 247 248 250 253 255 257 258 259 258 259 260 261 262 261 261 263 264
126 128 129 126 112 115 121 131 133 137 144 139 139 134 147 152 163 187 198 210 215 224 230 233 240 242 244 244 244 246 249 249 252 252 255 257 257 258 260 260 261 261 263 264 264 263 262 262 262
129 124 126 119 110 114 114 120 127 125 135 141 143 137 134 148 157 183 203 225 232 236 239 244 251 252 252 252 252 254 255 256 258 257 257 258 258 259 259 260 261 262 264 264 264 263 262 262 263
134 132 132 126 119 117 114 115 120 122 123 135 146 145 137 144 175 202 219 232 244 250 250 255 257 257 256 257 259 259 262 263 264 263 261 261 262 261 262 261 262 262 263 263 263 262 262 263 264
Height
5771 5773 5774 5776 5777 5778 5782 5790 5793 5797 5799 5801 5804 5807 5810 5813 5815 5819 5821 5825 5831 5836 5840 5843 5846 5849 5852 5854 5856 5859 5860 5862 5864 5865 5866 5867 5868 5869 5870 5871 5871 5872 5872 5872 5873 5873 5873 5873 5873
5761 5763 5764 5765 5766 5768 5775 5781 5784 5787 5790 5792 5795 5798 5802 5804 5806 5810 5814 5818 5824 5829 5834 5837 5841 5844 5847 5850 5853 5855 5857 5859 5861 5862 5863 5865 5866 5867 5868 5869 5870 5870 5871 5871 5872 5872 5872 5872 5872
5750 5751 5753 5753 5756 5761 5767 5771 5773 5776 5779 5782 5786 5789 5793 5795 5799 5802 5808 5812 5817 5822 5828 5831 5835 5839 5842 5845 5848 5851 5853 5855 5857 5859 5861 5862 5863 5864 5866 5867 5868 5869 5869 5870 5870 5871 5871 5871 5871
5739 5740 5741 5744 5747 5754 5757 5760 5761 5764 5768 5771 5775 5779 5783 5787 5791 5796 5801 5805 5810 5815 5821 5825 5829 5833 5837 5840 5844 5847 5849 5852 5854 5856 5857 5859 5860 5862 5863 5864 5866 5867 5867 5868 5869 5869 5869 5870 5870
5726 5727 5729 5732 5738 5743 5745 5748 5750 5752 5756 5760 5764 5768 5773 5778 5783 5788 5792 5797 5802 5807 5813 5818 5822 5827 5831 5835 5839 5842 5845 5848 5850 5852 5854 5855 5857 5859 5860 5862 5863 5864 5865 5866 5867 5867 5868 5868 5868
5715 5715 5717 5721 5726 5730 5733 5735 5738 5741 5745 5749 5753 5757 5763 5768 5773 5778 5784 5789 5794 5800 5805 5810 5815 5820 5825 5829 5833 5837 5840 5843 5846 5848 5850 5852 5853 5855 5857 5859 5860 5862 5862 5863 5864 5865 5866 5866 5866
5703 5703 5706 5709 5712 5716 5720 5722 5725 5729 5732 5737 5741 5746 5752 5756 5762 5769 5774 5780 5785 5791 5797 5802 5808 5813 5818 5823 5827 5831 5835 5838 5841 5843 5846 5848 5850 5852 5854 5855 5857 5859 5860 5861 5862 5862 5863 5864 5864
5689 5691 5694 5696 5698 5703 5706 5708 5712 5716 5720 5726 5730 5735 5741 5746 5751 5758 5764 5770 5776 5782 5788 5794 5800 5806 5812 5816 5821 5825 5829 5832 5835 5838 5841 5843 5846 5848 5850 5852 5854 5855 5857 5858 5859 5860 5860 5861 5862
5676 5680 5682 5684 5685 5690 5691 5694 5699 5703 5707 5713 5718 5723 5730 5735 5741 5748 5754 5760 5766 5773 5779 5786 5792 5798 5804 5809 5814 5819 5823 5827 5830 5833 5836 5839 5841 5844 5846 5848 5850 5851 5853 5854 5855 5856 5857 5858 5859
5665 5668 5671 5671 5673 5676 5678 5682 5687 5690 5696 5701 5706 5712 5718 5723 5729 5736 5744 5750 5757 5764 5771 5777 5783 5790 5796 5802 5807 5812 5816 5821 5825 5828 5831 5834 5837 5840 5842 5844 5846 5847 5849 5850 5852 5853 5854 5855 5855
5654 5657 5659 5660 5661 5663 5667 5671 5675 5678 5685 5690 5694 5700 5706 5711 5718 5726 5733 5740 5747 5755 5762 5767 5774 5781 5788 5794 5800 5805 5810 5814 5819 5822 5826 5829 5832 5835 5837 5839 5841 5843 5845 5846 5848 5849 5850 5851 5851
5644 5646 5647 5649 5651 5654 5656 5660 5664 5667 5674 5677 5682 5687 5693 5700 5707 5715 5722 5730 5737 5745 5752 5759 5766 5772 5780 5786 5791 5797 5802 5807 5812 5816 5820 5823 5827 5829 5832 5834 5836 5839 5840 5842 5843 5844 5845 5846 5847
5636 5637 5638 5640 5641 5643 5646 5649 5652 5657 5661 5664 5669 5675 5681 5689 5695 5704 5712 5719 5727 5736 5743 5750 5758 5764 5771 5777 5783 5789 5795 5800 5805 5809 5813 5817 5821 5824 5827 5829 5831 5833 5835 5837 5838 5840 5841 5842 5843
5629 5629 5630 5631 5632 5634 5635 5640 5642 5647 5649 5653 5658 5664 5672 5679 5686 5693 5700 5709 5717 5726 5734 5741 5749 5756 5762 5768 5774 5780 5786 5792 5797 5802 5807 5811 5814 5818 5820 5823 5826 5828 5830 5831 5833 5835 5836 5837 5838
5622 5623 5624 5624 5624 5625 5626 5632 5634 5636 5638 5642 5648 5654 5660 5668 5675 5683 5691 5699 5708 5716 5724 5732 5740 5747 5754 5760 5765 5771 5778 5784 5790 5795 5800 5804 5808 5811 5814 5817 5819 5822 5824 5825 5827 5829 5830 5831 5832
5617 5617 5618 5619 5618 5619 5621 5625 5626 5626 5629 5633 5639 5644 5651 5658 5666 5674 5682 5690 5699 5707 5716 5724 5732 5740 5747 5753 5758 5765 5770 5776 5782 5787 5792 5796 5801 5804 5807 5810 5813 5815 5817 5819 5821 5823 5824 5825 5826
5612 5613 5613 5614 5614 5614 5615 5618 5620 5620 5622 5626 5632 5637 5643 5650 5657 5665 5674 5682 5691 5699 5708 5717 5725 5732 5739 5745 5752 5757 5763 5768 5774 5779 5784 5789 5793 5797 5800 5804 5806 5809 5811 5813 5815 5816 5818 5819 5820
5610 5610 5610 5610 5610 5610 5611 5613 5615 5615 5618 5621 5626 5631 5636 5641 5650 5658 5666 5675 5684 5692 5701 5710 5718 5725 5732 5738 5744 5749 5755 5761 5766 5771 5776 5780 5785 5789 5792 5796 5799 5801 5804 5806 5808 5809 5811 5812 5813
5607 5607 5608 5608 5608 5608 5608 5609 5611 5612 5614 5617 5621 5626 5631 5637 5645 5652 5661 5669 5678 5686 5694 5703 5711 5718 5725 5732 5737 5742 5748 5754 5759 5763 5768 5772 5777 5781 5785 5788 5791 5794 5796 5798 5800 5802 5803 5804 5805
5606 5606 5606 5607 5606 5606 5606 5607 5609 5610 5612 5615 5618 5623 5628 5635 5641 5648 5657 5665 5672 5680 5688 5697 5704 5712 5718 5724 5731 5736 5742 5747 5751 5756 5760 5765 5769 5773 5777 5780 5783 5786 5788 5790 5792 5793 5795 5796 5797
5605 5605 5606 5606 5606 5606 5606 5608 5608 5609 5611 5614 5617 5621 5626 5632 5638 5645 5653 5660 5667 5675 5683 5691 5698 5706 5712 5718 5724 5729 5734 5739 5743 5748 5752 5757 5761 5764 5768 5771 5774 5777 5779 5781 5783 5784 5785 5787 5788
5605 5605 5606 5606 5606 5607 5608 5608 5609 5609 5612 5614 5617 5621 5626 5631 5637 5644 5651 5657 5664 5672 5680 5687 5694 5700 5706 5712 5717 5723 5728 5733 5737 5741 5745 5749 5753 5757 5760 5763 5766 5768 5770 5772 5773 5775 5776 5778 5779
5606 5606 5607 5607 5607 5608 5609 5609 5611 5611 5613 5616 5619 5622 5626 5631 5637 5643 5649 5656 5662 5669 5677 5683 5689 5695 5700 5706 5711 5716 5721 5726 5730 5733 5737 5741 5745 5748 5751 5753 5756 5759 5761 5763 5764 5766 5767 5768 5769
5606 5608 5608 5609 5609 5610 5611 5612 5613 5614 5616 5618 5620 5623 5627 5632 5637 5643 5649 5655 5660 5666 5673 5679 5685 5690 5695 5700 5705 5710 5715 5719 5723 5726 5729 5733 5736 5739 5742 5744 5747 5749 5751 5753 5755 5756 5757 5758 5759
5608 5610 5611 5611 5611 5612 5613 5614 5616 5616 5618 5620 5623 5626 5630 5634 5639 5643 5648 5653 5658 5664 5670 5676 5681 5685 5690 5695 5700 5704 5709 5712 5716 5719 5721 5725 5727 5730 5733 5735 5737 5739 5741 5742 5744 5746 5747 5747 5749
5610 5611 5612 5613 5614 5615 5616 5617 5619 5619 5621 5623 5625 5628 5632 5636 5640 5644 5647 5651 5657 5662 5667 5673 5677 5682 5686 5690 5694 5699 5702 5706 5709 5712 5714 5717 5719 5721 5723 5725 5727 5729 5730 5732 5733 5735 5736 5737 5738
5612 5612 5614 5615 5616 5617 5618 5620 5621 5622 5624 5626 5628 5631 5634 5637 5641 5644 5648 5652 5656 5661 5666 5670 5674 5678 5682 5686 5689 5693 5696 5699 5702 5704 5706 5708 5710 5712 5714 5716 5717 5719 5720 5721 5723 5724 5725 5726 5727
5614 5615 5616 5617 5617 5619 5620 5621 5624 5625 5627 5629 5631 5633 5636 5639 5642 5645 5648 5652 5656 5660 5664 5668 5672 5675 5679 5682 5685 5687 5690 5692 5694 5696 5698 5699 5701 5702 5704 5705 5706 5707 5708 5709 5711 5712 5714 5715 5716
5617 5618 5618 5619 5620 5622 5623 5626 5625 5627 5629 5630 5633 5635 5637 5640 5643 5646 5649 5652 5655 5659 5662 5666 5669 5672 5674 5676 5679 5681 5683 5685 5687 5688 5689 5690 5691 5692 5693 5694 5695 5696 5697 5698 5699 5700 5701 5703 5704
5619 5620 5621 5622 5623 5624 5626 5630 5628 5629 5631 5633 5634 5637 5639 5642 5644 5647 5649 5652 5654 5657 5660 5663 5665 5667 5669 5671 5672 5674 5675 5677 5677 5678 5679 5681 5681 5682 5682 5682 5684 5685 5685 5686 5687 5688 5689 5690 5691